Paynesville, MN

6:26 AM CST on February 20, 2018 (GMT -0600)
Paynesville

Weather History for KPEX - May, 2013

Change the Weather History Date:

Saturday, May 25, 2013

  Actual Average (KLJF) Record (KLJF)
Temperature  
Mean Temperature 56 °F -  
Max Temperature 60 °F 70 °F 92 °F (1978)
Min Temperature 52 °F 49 °F 36 °F (1983)
Degree Days  
Heating Degree Days 9    
Growing Degree Days 6 (Base 50)    
Moisture  
Dew Point 48 °F    
Average Humidity 80    
Maximum Humidity 89    
Minimum Humidity 67    
Precipitation  
Precipitation 0.27 in - - ()
Sea Level Pressure  
Sea Level Pressure 30.20 in    
Wind  
Wind Speed 12 mph (ESE)    
Max Wind Speed 18 mph    
Max Gust Speed 26 mph    
Visibility 10 miles    
Events Rain    
Averages and records for this station are not official NWS values.
T = Trace of Precipitation, MM = Missing Value Source: NWS Daily Summary

Daily Weather History Graph

Daily Weather History Graph

Search for Another Location

Airport or City:

Trip Planner

Search our weather history database for the weather conditions in past years. The results will help you decide how hot, cold, wet, or windy it might be!

Date:

Astronomy

May. 25, 2013 Rise Set
Actual Time 5:38 AM CDT 8:53 PM CDT
Civil Twilight 5:02 AM CDT 9:29 PM CDT
Nautical Twilight 4:16 AM CDT 10:16 PM CDT
Astronomical Twilight 3:18 AM CDT 11:14 PM CDT
Moon 9:42 PM CDT (5/25) 6:07 AM CDT (5/25)
Length of Visible Light 16h 26m
Length of Day
15h 14m
Full, 100% of the Moon is Illuminated
May 25
Full
May 31
Last Quarter
Jun 8
New
Jun 16
First Quarter
Jun 23
Full

Hourly Weather History & Observations

Time (CDT) Temp. Dew Point Humidity Pressure Visibility Wind Dir Wind Speed Gust Speed Precip Events Conditions
12:13 AM 53.8 °F 50.0 °F 87% 30.21 in 10.0 mi SE 9.2 mph - N/A Rain Rain
12:32 AM 53.8 °F 50.0 °F 87% 30.21 in 10.0 mi ESE 9.2 mph - N/A Rain Rain
12:53 AM 53.6 °F 50.0 °F 88% 30.21 in 10.0 mi ESE 11.5 mph - N/A   Overcast
1:13 AM 53.8 °F 49.8 °F 86% 30.21 in 10.0 mi ESE 8.1 mph - N/A   Overcast
1:33 AM 53.8 °F 49.6 °F 86% 30.21 in 10.0 mi ESE 9.2 mph - N/A   Overcast
1:53 AM 53.6 °F 49.1 °F 85% 30.19 in 10.0 mi ESE 10.4 mph - N/A   Overcast
2:13 AM 53.6 °F 48.9 °F 84% 30.18 in 10.0 mi East 10.4 mph - N/A   Overcast
2:33 AM 53.6 °F 48.6 °F 83% 30.17 in 10.0 mi ESE 10.4 mph - N/A   Overcast
2:53 AM 53.6 °F 48.2 °F 82% 30.18 in 10.0 mi ESE 10.4 mph 18.4 mph N/A   Overcast
3:13 AM 53.6 °F 48.2 °F 82% 30.18 in 10.0 mi ESE 9.2 mph - N/A   Overcast
3:32 AM 53.4 °F 48.2 °F 82% 30.17 in 10.0 mi ESE 10.4 mph - N/A   Overcast
3:53 AM 53.1 °F 48.2 °F 84% 30.18 in 10.0 mi ESE 11.5 mph 17.3 mph N/A   Overcast
4:13 AM 53.1 °F 48.2 °F 84% 30.19 in 10.0 mi ESE 9.2 mph - N/A   Overcast
4:33 AM 52.7 °F 48.2 °F 85% 30.19 in 10.0 mi ESE 9.2 mph - N/A   Overcast
4:53 AM 52.7 °F 48.2 °F 85% 30.18 in 10.0 mi ESE 15.0 mph 18.4 mph N/A   Overcast
5:12 AM 52.7 °F 47.8 °F 84% 30.18 in 10.0 mi ESE 11.5 mph 18.4 mph N/A   Overcast
5:33 AM 52.7 °F 47.8 °F 84% 30.18 in 10.0 mi ESE 11.5 mph 16.1 mph N/A   Overcast
5:53 AM 52.9 °F 47.5 °F 82% 30.18 in 10.0 mi ESE 12.7 mph 16.1 mph N/A   Overcast
6:13 AM 52.9 °F 47.5 °F 82% 30.18 in 10.0 mi ESE 12.7 mph 18.4 mph N/A   Overcast
6:33 AM 52.9 °F 47.7 °F 82% 30.18 in 10.0 mi ESE 11.5 mph - N/A   Overcast
6:53 AM 52.9 °F 47.5 °F 82% 30.18 in 10.0 mi ESE 12.7 mph - N/A   Overcast
7:13 AM 52.9 °F 47.5 °F 82% 30.18 in 7.0 mi ESE 15.0 mph - N/A   Overcast
7:33 AM 53.4 °F 47.3 °F 80% 30.18 in 10.0 mi ESE 12.7 mph 20.7 mph N/A   Overcast
7:53 AM 53.2 °F 47.3 °F 80% 30.18 in 10.0 mi ESE 11.5 mph - N/A   Overcast
8:13 AM 53.6 °F 47.1 °F 79% 30.19 in 10.0 mi ESE 12.7 mph - N/A   Overcast
8:33 AM 53.8 °F 46.9 °F 78% 30.20 in 10.0 mi ESE 13.8 mph - N/A   Overcast
8:53 AM 54.0 °F 46.8 °F 77% 30.19 in 10.0 mi ESE 12.7 mph 20.7 mph N/A   Overcast
9:13 AM 54.0 °F 46.8 °F 77% 30.20 in 10.0 mi SE 15.0 mph 19.6 mph N/A   Overcast
9:33 AM 54.3 °F 46.9 °F 76% 30.20 in 10.0 mi ESE 9.2 mph - N/A   Overcast
9:53 AM 54.7 °F 46.9 °F 75% 30.19 in 10.0 mi ESE 13.8 mph 19.6 mph N/A   Overcast
10:13 AM 55.0 °F 46.9 °F 74% 30.19 in 10.0 mi ESE 17.3 mph 24.2 mph N/A   Overcast
10:33 AM 55.8 °F 47.3 °F 73% 30.20 in 10.0 mi SE 17.3 mph 24.2 mph N/A   Overcast
10:53 AM 57.4 °F 48.0 °F 71% 30.20 in 10.0 mi SE 16.1 mph 21.9 mph N/A   Mostly Cloudy
11:13 AM 58.1 °F 48.7 °F 71% 30.20 in 10.0 mi SE 13.8 mph 23.0 mph N/A   Mostly Cloudy
11:33 AM 58.1 °F 48.6 °F 71% 30.21 in 10.0 mi ESE 15.0 mph 21.9 mph N/A   Mostly Cloudy
11:53 AM 58.1 °F 48.4 °F 70% 30.21 in 10.0 mi SE 16.1 mph 21.9 mph N/A   Overcast
12:13 PM 59.0 °F 49.3 °F 70% 30.21 in 10.0 mi ESE 17.3 mph 21.9 mph N/A   Overcast
12:33 PM 60.1 °F 49.3 °F 67% 30.20 in 7.0 mi SE 17.3 mph 20.7 mph N/A   Mostly Cloudy
12:53 PM 59.2 °F 49.3 °F 70% 30.21 in 10.0 mi SE 17.3 mph 23.0 mph N/A   Overcast
1:13 PM 58.5 °F 48.9 °F 71% 30.21 in 10.0 mi SE 15.0 mph 20.7 mph N/A   Overcast
1:33 PM 57.4 °F 48.4 °F 72% 30.21 in 10.0 mi SE 16.1 mph 23.0 mph N/A   Overcast
1:53 PM 58.1 °F 49.5 °F 73% 30.21 in 10.0 mi SE 13.8 mph 21.9 mph N/A   Overcast
2:13 PM 57.6 °F 48.7 °F 72% 30.22 in 10.0 mi ESE 18.4 mph 24.2 mph N/A   Overcast
2:33 PM 56.8 °F 48.6 °F 74% 30.22 in 10.0 mi SE 15.0 mph 24.2 mph N/A   Overcast
2:53 PM 56.3 °F 48.6 °F 75% 30.22 in 10.0 mi SE 11.5 mph - N/A   Overcast
3:13 PM 56.3 °F 49.1 °F 77% 30.21 in 10.0 mi SE 15.0 mph 26.5 mph N/A   Overcast
3:33 PM 56.3 °F 48.9 °F 76% 30.21 in 10.0 mi ESE 15.0 mph 24.2 mph N/A   Overcast
3:53 PM 56.3 °F 48.9 °F 76% 30.21 in 10.0 mi ESE 17.3 mph 20.7 mph N/A   Overcast
4:13 PM 55.9 °F 48.7 °F 77% 30.21 in 10.0 mi ESE 17.3 mph 21.9 mph N/A   Overcast
4:33 PM 55.8 °F 48.7 °F 77% 30.21 in 10.0 mi ESE 13.8 mph 23.0 mph N/A   Overcast
4:53 PM 55.8 °F 48.6 °F 77% 30.21 in 10.0 mi ESE 15.0 mph 23.0 mph N/A   Overcast
5:13 PM 56.1 °F 48.9 °F 77% 30.21 in 10.0 mi ESE 16.1 mph 25.3 mph N/A   Overcast
5:33 PM 55.6 °F 48.6 °F 77% 30.21 in 10.0 mi SE 13.8 mph 19.6 mph N/A   Overcast
5:53 PM 54.5 °F 49.1 °F 82% 30.21 in 10.0 mi ESE 13.8 mph 23.0 mph N/A   Overcast
6:12 PM 53.6 °F 49.1 °F 85% 30.21 in 7.0 mi ESE 16.1 mph 20.7 mph N/A   Overcast
6:33 PM 53.2 °F 49.1 °F 86% 30.21 in 5.0 mi SE 13.8 mph 23.0 mph N/A   Overcast
6:53 PM 52.5 °F 48.9 °F 88% 30.21 in 7.0 mi ESE 15.0 mph 23.0 mph N/A Rain Rain
7:13 PM 52.3 °F 48.7 °F 88% 30.21 in 10.0 mi ESE 10.4 mph - N/A Rain Rain
7:33 PM 52.0 °F 48.9 °F 89% 30.21 in 10.0 mi ESE 11.5 mph - N/A Rain Rain
7:53 PM 52.2 °F 48.6 °F 88% 30.21 in 10.0 mi ESE 11.5 mph 19.6 mph N/A Rain Rain
8:13 PM 52.3 °F 48.6 °F 87% 30.21 in 10.0 mi ESE 13.8 mph 20.7 mph N/A Rain Rain
8:32 PM 52.3 °F 48.6 °F 87% 30.21 in 10.0 mi ESE 15.0 mph 20.7 mph N/A Rain Rain
8:53 PM 52.5 °F 48.6 °F 86% 30.20 in 10.0 mi ESE 11.5 mph 17.3 mph N/A   Overcast
9:13 PM 52.7 °F 48.4 °F 85% 30.21 in 10.0 mi ESE 11.5 mph - N/A   Overcast
9:33 PM 52.7 °F 47.5 °F 82% 30.21 in 10.0 mi ESE 15.0 mph - N/A   Overcast
9:53 PM 52.7 °F 46.9 °F 81% 30.22 in 10.0 mi ESE 13.8 mph 20.7 mph N/A   Overcast
10:13 PM 52.7 °F 46.4 °F 79% 30.21 in 10.0 mi ESE 16.1 mph 21.9 mph N/A   Overcast
10:33 PM 52.7 °F 45.7 °F 77% 30.21 in 10.0 mi ESE 13.8 mph 19.6 mph N/A   Overcast
10:53 PM 52.7 °F 45.1 °F 75% 30.22 in 10.0 mi ESE 13.8 mph 19.6 mph N/A   Overcast
11:13 PM 52.7 °F 45.1 °F 75% 30.21 in 10.0 mi ESE 13.8 mph - N/A   Overcast
11:33 PM 52.7 °F 44.8 °F 74% 30.21 in 10.0 mi ESE 12.7 mph 18.4 mph N/A   Overcast
11:53 PM 52.7 °F 45.0 °F 75% 30.20 in 10.0 mi ESE 15.0 mph 18.4 mph N/A   Overcast